TimeMST,TemperatureF,Dew PointF,Humidity,Sea Level PressureIn,VisibilityMPH,Wind Direction,Wind SpeedMPH,Gust SpeedMPH,PrecipitationIn,Events,Conditions,WindDirDegrees,DateUTC
12:53 AM,19.0,12.0,74,30.09,10.0,NW,8.1,-,N/A,,Clear,310,2013-01-09 07:53:00
1:53 AM,25.0,14.0,63,30.08,10.0,Calm,Calm,-,N/A,,Clear,0,2013-01-09 08:53:00
2:53 AM,19.0,12.0,74,30.09,10.0,Calm,Calm,-,N/A,,Clear,0,2013-01-09 09:53:00
3:53 AM,21.0,12.9,71,30.09,10.0,North,3.5,-,N/A,,Clear,350,2013-01-09 10:53:00
4:53 AM,16.0,10.9,81,30.11,10.0,South,3.5,-,N/A,,Clear,170,2013-01-09 11:53:00
5:53 AM,21.0,12.9,71,30.12,10.0,Calm,Calm,-,N/A,,Clear,0,2013-01-09 12:53:00
6:53 AM,26.1,14.0,60,30.09,10.0,Variable,3.5,-,N/A,,Clear,0,2013-01-09 13:53:00
7:53 AM,36.0,18.0,48,30.08,10.0,South,3.5,-,N/A,,Clear,190,2013-01-09 14:53:00
8:53 AM,30.9,19.0,61,30.09,10.0,NNW,6.9,-,N/A,,Clear,340,2013-01-09 15:53:00
9:53 AM,33.1,19.9,59,30.11,10.0,Calm,Calm,-,N/A,,Clear,0,2013-01-09 16:53:00
10:53 AM,36.0,21.0,55,30.08,10.0,Calm,Calm,-,N/A,,Clear,0,2013-01-09 17:53:00
11:53 AM,42.1,23.0,47,30.02,10.0,Calm,Calm,-,N/A,,Clear,0,2013-01-09 18:53:00
12:53 PM,48.0,26.1,42,29.96,10.0,SE,6.9,-,N/A,,Clear,130,2013-01-09 19:53:00
1:53 PM,41.0,28.0,60,29.96,10.0,WNW,6.9,-,N/A,,Clear,300,2013-01-09 20:53:00
2:53 PM,45.0,28.9,53,29.96,10.0,NNW,5.8,-,N/A,,Clear,330,2013-01-09 21:53:00
3:53 PM,39.9,30.0,68,29.93,10.0,NW,5.8,-,N/A,,Clear,320,2013-01-09 22:53:00
4:53 PM,37.0,28.9,73,29.91,10.0,NNW,4.6,-,N/A,,Clear,330,2013-01-09 23:53:00
5:53 PM,36.0,28.0,73,29.87,10.0,South,4.6,-,N/A,,Clear,180,2013-01-10 00:53:00
6:53 PM,34.0,27.0,75,29.85,10.0,Variable,3.5,-,N/A,,Clear,0,2013-01-10 01:53:00
7:53 PM,37.0,25.0,62,29.78,10.0,Calm,Calm,-,N/A,,Clear,0,2013-01-10 02:53:00
8:53 PM,32.0,25.0,75,29.80,10.0,Variable,3.5,-,N/A,,Clear,0,2013-01-10 03:53:00
9:53 PM,34.0,24.1,67,29.80,10.0,WNW,9.2,-,N/A,,Clear,300,2013-01-10 04:53:00
10:53 PM,33.1,24.1,70,29.80,10.0,NNW,9.2,-,N/A,,Clear,340,2013-01-10 05:53:00
11:53 PM,28.9,24.1,82,29.78,10.0,SW,12.7,-,N/A,,Clear,220,2013-01-10 06:53:00